Torrington, WY

8:09 PM MDT on September 29, 2016 (GMT -0600)
Torrington Municipal

Weather History for KTOR - August, 2014

Change the Weather History Date:

Thursday, August 21, 2014

  Actual Average Record
Temperature  
Mean Temperature 72 °F 71 °F  
Max Temperature 89 °F 87 °F 96 °F (2010)
Min Temperature 54 °F 54 °F 44 °F (2009)
Degree Days  
Heating Degree Days 0 0  
Month to date heating degree days 0 0  
Since 1 June heating degree days 85 81  
Since 1 July heating degree days 7 6  
Cooling Degree Days 7 6  
Month to date cooling degree days 179 167  
Year to date cooling degree days 515 583  
Since 1 June cooling degree days 499 565  
Growing Degree Days 22 (Base 50)    
Moisture  
Dew Point 48 °F    
Average Humidity 49    
Maximum Humidity 77    
Minimum Humidity 20    
Precipitation  
Precipitation 0.03 in 0.02 in 0.09 in (2013)
Month to date precipitation 0.62 1.00  
Year to date precipitation 12.08 10.69  
Sea Level Pressure  
Sea Level Pressure 29.85 in    
Wind  
Wind Speed 5 mph (West)    
Max Wind Speed 24 mph    
Max Gust Speed 31 mph    
Visibility 10 miles    
Events Rain    
T = Trace of Precipitation, MM = Missing Value Source: NWS Daily Summary

Daily Weather History Graph

Daily Weather History Graph

Search for Another Location

Airport or City:

Trip Planner

Search our weather history database for the weather conditions in past years. The results will help you decide how hot, cold, wet, or windy it might be!

Date:

Astronomy

Aug. 21, 2014 Rise Set
Actual Time 6:10 AM MDT 7:47 PM MDT
Civil Twilight 5:41 AM MDT 8:17 PM MDT
Nautical Twilight 5:05 AM MDT 8:53 PM MDT
Astronomical Twilight 4:26 AM MDT 9:31 PM MDT
Moon 2:41 AM MDT (8/21) 5:19 PM MDT (8/21)
Length of Visible Light 14h 36m
Length of Day
13h 37m
Waning Crescent, 13% of the Moon is Illuminated
Aug 21
Waning Crescent
Aug 25
New
Sep 2
First Quarter
Sep 8
Full
Sep 15
Last Quarter

Hourly Weather History & Observations

Time (MDT) Temp. Dew Point Humidity Pressure Visibility Wind Dir Wind Speed Gust Speed Precip Events Conditions
12:53 AM 63.0 °F 48.9 °F 60% 29.74 in 10.0 mi WSW 3.5 mph - N/A   Clear
1:53 AM 62.1 °F 48.0 °F 60% 29.75 in 10.0 mi Calm Calm - N/A   Clear
2:53 AM 59.0 °F 48.9 °F 69% 29.78 in 10.0 mi Calm Calm - N/A   Clear
3:53 AM 59.0 °F 48.9 °F 69% 29.80 in 10.0 mi Calm Calm - N/A   Clear
4:53 AM 57.0 °F 48.9 °F 74% 29.82 in 10.0 mi WNW 5.8 mph - N/A   Clear
5:53 AM 55.9 °F 48.0 °F 75% 29.83 in 10.0 mi NNE 4.6 mph - N/A   Clear
6:53 AM 55.9 °F 48.9 °F 77% 29.87 in 10.0 mi Calm Calm - N/A   Clear
7:53 AM 64.0 °F 51.1 °F 63% 29.88 in 10.0 mi WNW 5.8 mph - N/A   Clear
8:53 AM 73.0 °F 50.0 °F 44% 29.87 in 10.0 mi West 11.5 mph - N/A   Clear
9:53 AM 77.0 °F 48.9 °F 37% 29.87 in 10.0 mi WNW 10.4 mph - N/A   Clear
10:53 AM 81.0 °F 46.9 °F 30% 29.87 in 10.0 mi WNW 5.8 mph - N/A   Clear
11:53 AM 82.0 °F 46.9 °F 29% 29.88 in 10.0 mi Variable 4.6 mph - N/A   Clear
12:53 PM 84.0 °F 45.0 °F 25% 29.86 in 10.0 mi West 4.6 mph - N/A   Clear
1:53 PM 84.9 °F 44.1 °F 24% 29.85 in 10.0 mi WSW 4.6 mph - N/A   Clear
2:53 PM 87.1 °F 44.1 °F 22% 29.85 in 10.0 mi West 6.9 mph - N/A   Clear
3:53 PM 88.0 °F 41.0 °F 19% 29.83 in 10.0 mi WSW 5.8 mph - N/A   Partly Cloudy
4:53 PM 86.0 °F 42.1 °F 21% 29.83 in 10.0 mi WNW 9.2 mph - N/A   Partly Cloudy
5:53 PM 88.0 °F 42.1 °F 20% 29.83 in 10.0 mi WNW 4.6 mph - N/A   Clear
6:53 PM 81.0 °F 46.9 °F 30% 29.85 in 10.0 mi South 8.1 mph - N/A   Mostly Cloudy
7:53 PM 75.9 °F 51.1 °F 42% 29.90 in 10.0 mi SW 17.3 mph 25.3 mph 0.00 in Rain Light Rain
8:53 PM 71.1 °F 55.9 °F 59% 29.89 in 10.0 mi ENE 3.5 mph - 0.03 in   Overcast
9:53 PM 72.0 °F 55.9 °F 57% 29.89 in 10.0 mi Calm Calm - N/A   Mostly Cloudy
10:53 PM 66.9 °F 53.1 °F 61% 29.91 in 10.0 mi West 6.9 mph - N/A   Clear
11:53 PM 66.0 °F 51.1 °F 59% 29.91 in 10.0 mi Calm Calm - N/A   Clear